{"data":{"norad_id":58126,"intl_designator":"2023-162J","name":"STARLINK-30767","alt_names":[],"object_type":"PAYLOAD","status":"ACTIVE","operator":null,"country":"US","launch_date":"2023-10-22","launch_site_code":"AFETR","launch_vehicle":null,"mission":null,"orbit_class":"UNKNOWN","rcs_meters":null,"size_class":null,"mass_kg":null,"dimensions":null,"purposes":["comms"],"wikipedia_slug":null,"has_3d_model":false,"image_url":null,"decayed_at":null,"tle_current":{"epoch":"2026-09-20T22:13:23.759616Z","epoch_age_seconds":103704,"freshness":"FRESH","line1":"1 58126U 23162J   26263.92596944 -.00000265  00000+0 -10541-6 0  9994","line2":"2 58126  43.0042 106.6899 0001675 271.3258  88.7402 15.27574344162205","mean_motion":15.27574344,"eccentricity":0.0001675,"inclination_deg":43.0042,"raan_deg":106.6899,"arg_perigee_deg":271.3258,"mean_anomaly_deg":88.7402,"bstar":-1.0541e-7,"rev_number":16220,"period_min":94.267097745915,"perigee_km":481.91678068275,"apogee_km":484.21528369854,"semimajor_km":6861.2030321906,"source":"CELESTRAK","updated_at":"2026-09-21T09:00:33.792124Z"}}}